[[{"header":{"parameterUnit":"m.s-1","parameterCategory":2,"la1":30.2991,"la2":30.254,"lo1":-89.0895,"lo2":-89.0444,"dy":0.0017,"dx":0.0017,"nx":28,"ny":28,"refTime":"2025-02-10T09:00:00:Z","depth":"0","parameterNumber":2,"parameterNumberName":"U-component_of_CURRENTS"},"data":[0,0,0,0,0,0,0,0,0,0,0,0,0,0,0,0,0,0,0,0,0,0,0,0,0,0,0,0,0,0,0,0,0,0,0,0,0,0,0,0,0,0,0,0,0,0,0,0,0,0,0,0,0,0,0,0,0,0,-0.2358,-0.2359,0,-0.2376,-0.2376,-0.2376,-0.2359,-0.2358,-0.2358,-0.2357,-0.2353,-0.2354,-0.2354,0,0,0,0,0,0,0,0,0,0,0,0,0,-0.2299,-0.23,-0.2358,-0.2359,-0.2359,-0.2376,-0.2376,-0.2377,-0.2359,-0.2358,-0.2358,-0.2357,-0.2353,-0.2354,-0.2354,0,0,0,0,0,0,0,0,0,0,0,0,0,-0.232,-0.2301,-0.2358,-0.2354,-0.2354,-0.2376,-0.2376,-0.2377,-0.2359,-0.2358,-0.2358,-0.2357,-0.2353,-0.2354,-0.2354,-0.2372,0,0,-0.2356,-0.2356,0,0,0,0,0,0,0,0,-0.2319,-0.2322,-0.2354,-0.2354,-0.2355,-0.2367,-0.2354,-0.2375,-0.2359,-0.2355,-0.2357,-0.2357,-0.2358,-0.2358,-0.236,-0.2372,-0.2372,-0.2356,-0.2356,-0.2356,-0.2357,0,0,0,0,0,0,0,-0.2317,-0.2321,-0.2363,-0.2355,-0.2355,-0.2349,-0.235,-0.2358,-0.2358,-0.2355,-0.2354,-0.236,-0.2357,-0.236,-0.236,-0.2372,-0.2356,-0.2356,-0.2357,-0.2357,-0.2442,-0.2443,0,0,0,0,0,0,-0.2321,-0.232,-0.2363,-0.2364,-0.2337,-0.235,-0.2352,-0.2362,-0.2358,-0.2358,-0.2361,-0.236,-0.2359,-0.2359,-0.236,-0.2407,-0.2356,-0.2357,-0.2357,-0.244,-0.2442,-0.2444,0,0,0,0,0,0,-0.232,-0.2325,-0.2362,-0.2344,-0.2348,-0.2352,-0.2363,-0.2362,-0.2361,-0.2364,-0.2362,-0.236,-0.2359,-0.2359,-0.2369,-0.2406,-0.2357,-0.2358,-0.2437,-0.244,-0.2443,-0.2486,0,0,0,0,0,0,-0.2318,-0.2325,-0.2327,-0.2344,-0.2349,-0.2379,-0.2364,-0.2363,-0.2367,-0.2365,-0.2362,-0.2361,-0.2358,-0.2368,-0.2369,-0.2406,-0.2358,-0.2435,-0.2439,-0.2442,-0.2482,-0.249,-0.2496,0,0,0,0,0,-0.2316,-0.2326,-0.2327,-0.2332,-0.2355,-0.238,-0.2382,-0.2381,-0.2368,-0.2375,-0.2371,-0.2361,-0.2393,-0.2369,-0.237,-0.2408,-0.2433,-0.2438,-0.2442,-0.2478,-0.2488,-0.2496,0,0,0,0,0,0,-0.2297,-0.2326,-0.2327,-0.2344,-0.2363,-0.2378,-0.2381,-0.2382,-0.2384,-0.2377,-0.2372,-0.2372,-0.2401,-0.2399,-0.2373,-0.2447,-0.2418,-0.2422,-0.2445,-0.2454,-0.2461,-0.2443,-0.2359,0,0,0,0,0,-0.2297,-0.231,-0.2338,-0.2348,-0.2359,-0.2369,-0.2376,-0.238,-0.2388,-0.2387,-0.2387,-0.2397,-0.2423,-0.243,-0.2445,-0.2474,-0.2433,-0.2505,-0.2513,-0.2519,-0.2507,-0.2473,-0.2475,-0.2458,-0.2458,-0.2458,0,0,-0.229,-0.2308,-0.2314,-0.2345,-0.2355,-0.2381,-0.2371,-0.2386,-0.2408,-0.2387,-0.2405,-0.2417,-0.2436,-0.2474,-0.2488,-0.2473,-0.2504,-0.2524,-0.2529,-0.2514,-0.2477,-0.2478,-0.2479,-0.2461,-0.2461,-0.246,0,0,-0.229,-0.2303,-0.2317,-0.234,-0.2366,-0.2381,-0.2388,-0.2408,-0.2416,-0.244,-0.2442,-0.2463,-0.2493,-0.2515,-0.2532,-0.2588,-0.2542,-0.2611,-0.2631,-0.2599,-0.2598,-0.2598,-0.2544,-0.2538,-0.2615,-0.2615,-0.2615,0,-0.228,-0.2304,-0.2324,-0.235,-0.2368,-0.2384,-0.2408,-0.2429,-0.2449,-0.2459,-0.2451,-0.2499,-0.2514,-0.2564,-0.2594,-0.2602,-0.2564,-0.2593,-0.2604,-0.2602,-0.2601,-0.2545,-0.2538,-0.2618,-0.2618,-0.2617,-0.2617,0,-0.2296,-0.2318,-0.2329,-0.2369,-0.2394,-0.2416,-0.2456,-0.2476,-0.2485,-0.2502,-0.254,-0.2555,-0.2578,-0.261,-0.262,-0.2645,-0.2614,-0.2612,-0.2571,-0.2604,-0.2545,-0.2536,-0.2622,-0.2621,-0.262,-0.2619,0,0,-0.226,-0.2327,-0.2328,-0.2351,-0.2406,-0.2426,-0.2473,-0.2515,-0.2534,-0.256,-0.2579,-0.2639,-0.2631,-0.265,-0.2669,-0.2657,-0.2625,-0.2635,-0.2632,-0.2562,-0.2529,-0.2461,-0.2445,-0.2619,-0.2618,-0.2617,-0.2489,0,-0.226,-0.2307,-0.2344,-0.2387,-0.2414,-0.2457,-0.2498,-0.254,-0.2567,-0.2591,-0.2618,-0.2643,-0.2654,-0.2664,-0.2657,-0.2639,-0.2606,-0.2658,-0.2523,-0.2519,-0.2439,-0.2435,-0.2339,-0.2212,-0.248,-0.2479,-0.2478,0,-0.2256,-0.229,-0.2331,-0.2396,-0.2411,-0.2441,-0.2495,-0.2536,-0.2589,-0.2607,-0.2632,-0.2646,-0.266,-0.2652,-0.2599,-0.2629,-0.2576,-0.2549,-0.2543,-0.2454,-0.2436,-0.2226,-0.2186,-0.2176,-0.2464,-0.2465,-0.2466,0,-0.2207,-0.2277,-0.2305,-0.2329,-0.2408,-0.2429,-0.2469,-0.2529,-0.2556,-0.2606,-0.2611,-0.2633,-0.2618,-0.2581,-0.2539,-0.2559,-0.2453,-0.2468,-0.2347,-0.2341,-0.2218,-0.2203,-0.2132,-0.2395,-0.2396,-0.2396,-0.2397,0,-0.2187,-0.2207,-0.2282,-0.2296,-0.2326,-0.2395,-0.2426,-0.2472,-0.2526,-0.2543,-0.2599,-0.2593,-0.2594,-0.255,-0.2517,-0.2396,-0.2421,-0.2331,-0.2301,-0.2233,-0.2221,-0.2173,-0.2204,-0.2391,-0.2392,-0.2393,-0.2394,0,-0.2119,-0.2173,-0.2206,-0.2281,-0.2301,-0.2318,-0.2388,-0.2411,-0.2469,-0.2487,-0.2498,-0.2533,-0.2468,-0.2452,-0.2376,-0.2334,-0.2208,-0.2203,-0.2116,-0.2078,-0.1962,-0.1999,-0.1881,-0.183,-0.204,-0.2037,-0.2035,0,-0.2087,-0.2097,-0.2167,-0.2179,-0.2207,-0.2248,-0.2274,-0.2362,-0.2388,-0.2438,-0.2433,-0.2399,-0.234,-0.2213,-0.2145,-0.2039,-0.2074,-0.1906,-0.1934,-0.1923,-0.1943,-0.1981,-0.1951,-0.1784,-0.178,-0.1777,-0.1774,0,-0.2012,-0.2036,-0.2059,-0.2086,-0.2111,-0.2144,-0.219,-0.2203,-0.2293,-0.2296,-0.2272,-0.2226,-0.2119,-0.1974,-0.1867,-0.181,-0.1868,-0.1834,-0.1842,-0.1745,-0.176,-0.1708,-0.1902,-0.1745,-0.1748,-0.175,-0.1752,-0.1753,-0.1935,-0.1931,-0.1958,-0.197,-0.1999,-0.2006,-0.1987,-0.2044,-0.2043,-0.2023,-0.2068,-0.1955,-0.1875,-0.1697,-0.1642,-0.1538,-0.161,-0.151,-0.1554,-0.1592,-0.1552,-0.1675,-0.1486,-0.1487,-0.1488,-0.1489,-0.149,0,-0.1826,-0.1831,-0.1841,-0.1846,-0.1822,-0.1879,-0.1898,-0.1852,-0.1798,-0.181,-0.1756,-0.1637,-0.1497,-0.1456,-0.1355,-0.1292,-0.1282,-0.1286,-0.1327,-0.1308,-0.1409,-0.1407,-0.1169,-0.1169,-0.1169,-0.1169,-0.1169,-0.1169,-0.1768,-0.173,-0.1734,-0.1652,-0.1652,-0.157,-0.1545,-0.1499,-0.1476,-0.136,-0.1305,-0.1279,-0.1267,-0.1355,-0.1267,-0.1208,-0.1208,-0.1158,-0.1207,-0.1305,-0.1331,-0.1355,-0.136,-0.1115,-0.1115,-0.1048,-0.1048,-0.1048]},{"header":{"parameterUnit":"m.s-1","parameterCategory":2,"la1":30.2991,"la2":30.254,"lo1":-89.0895,"lo2":-89.0444,"dy":0.0017,"dx":0.0017,"nx":28,"ny":28,"refTime":"2025-02-10T09:00:00:Z","depth":"0","parameterNumber":3,"parameterNumberName":"V-component_of_CURRENTS"},"data":[0,0,0,0,0,0,0,0,0,0,0,0,0,0,0,0,0,0,0,0,0,0,0,0,0,0,0,0,0,0,0,0,0,0,0,0,0,0,0,0,0,0,0,0,0,0,0,0,0,0,0,0,0,0,0,0,0,0,-0.0221,-0.022,0,-0.0164,-0.0163,-0.0162,-0.0116,-0.0116,-0.0116,-0.0115,0.0046,0.005,0.0054,0,0,0,0,0,0,0,0,0,0,0,0,0,-0.0236,-0.0236,-0.0221,-0.022,-0.022,-0.0164,-0.0163,-0.0162,-0.0116,-0.0116,-0.0116,-0.0115,0.0045,0.005,0.0054,0,0,0,0,0,0,0,0,0,0,0,0,0,-0.0208,-0.0236,-0.0221,-0.0192,-0.0189,-0.0164,-0.0163,-0.0162,-0.0116,-0.0116,-0.0116,-0.0115,0.0043,0.0049,0.0055,0.0084,0,0,0.0074,0.0076,0,0,0,0,0,0,0,0,-0.0209,-0.0207,-0.0197,-0.0194,-0.019,-0.0149,-0.0109,-0.0075,-0.0117,-0.0142,-0.0115,-0.0115,-0.0011,-0.0,0.0011,0.0091,0.0098,0.0074,0.0078,0.008,0.0082,0,0,0,0,0,0,0,-0.0211,-0.0209,-0.0196,-0.0196,-0.0192,-0.0163,-0.0159,-0.0103,-0.0076,-0.014,-0.0137,-0.0134,-0.0008,0.0005,0.0015,0.01,0.0074,0.0079,0.0083,0.0085,0.0307,0.0309,0,0,0,0,0,0,-0.0226,-0.0211,-0.0198,-0.0195,-0.0201,-0.0164,-0.0159,-0.0161,-0.0079,-0.0067,-0.0134,-0.0132,-0.0006,0.0008,0.0021,0.0099,0.008,0.0086,0.0089,0.0304,0.0307,0.031,0,0,0,0,0,0,-0.0226,-0.0225,-0.0201,-0.0203,-0.0198,-0.0164,-0.0167,-0.016,-0.0148,-0.0076,-0.0062,-0.0129,-0.0005,0.0013,0.0068,0.0105,0.0089,0.0094,0.0302,0.0305,0.0308,0.0231,0,0,0,0,0,0,-0.0227,-0.0226,-0.0232,-0.0204,-0.0198,-0.0194,-0.0167,-0.0159,-0.0147,-0.0144,-0.0067,-0.0052,-0.0003,0.0059,0.0074,0.0113,0.0099,0.0299,0.0303,0.0307,0.0231,0.0232,0.0232,0,0,0,0,0,-0.0228,-0.0244,-0.0233,-0.0231,-0.0208,-0.0195,-0.0189,-0.0162,-0.0148,-0.0148,-0.0094,-0.0054,0.0099,0.0064,0.0082,0.0123,0.0297,0.0302,0.0307,0.0231,0.0232,0.0232,0,0,0,0,0,0,-0.0254,-0.024,-0.0227,-0.0237,-0.022,-0.0188,-0.0187,-0.0167,-0.0127,-0.012,-0.005,-0.0031,0.004,0.0094,0.0054,0.0207,0.0215,0.0224,0.0152,0.0153,0.0154,0.0135,0.0104,0,0,0,0,0,-0.0264,-0.027,-0.0248,-0.0255,-0.025,-0.0218,-0.0209,-0.0192,-0.0155,-0.0137,-0.0084,-0.0005,0.0077,0.0118,0.0187,0.0252,0.0296,0.0304,0.0304,0.0304,0.0306,0.0408,0.0416,0.0326,0.0326,0.0326,0,0,-0.0275,-0.0268,-0.0271,-0.026,-0.0244,-0.0245,-0.0211,-0.0205,-0.0194,-0.0123,-0.009,-0.0013,0.0093,0.0169,0.021,0.0216,0.0347,0.031,0.0309,0.0312,0.0414,0.0422,0.043,0.033,0.0329,0.0329,0,0,-0.0308,-0.0296,-0.0314,-0.0304,-0.0289,-0.0267,-0.0269,-0.0239,-0.0213,-0.0178,-0.0101,-0.0009,0.0082,0.0181,0.0242,0.0294,0.0341,0.0327,0.0318,0.0415,0.0422,0.0429,0.0455,0.0465,0.0333,0.0333,0.0333,0,-0.0323,-0.0342,-0.0316,-0.033,-0.0326,-0.0283,-0.0298,-0.0265,-0.0219,-0.0182,-0.0176,0.0019,0.0097,0.0238,0.0256,0.0295,0.0326,0.0293,0.0411,0.0419,0.0428,0.0453,0.0465,0.033,0.0331,0.0331,0.0331,0,-0.0369,-0.0382,-0.0391,-0.0392,-0.0382,-0.0388,-0.0346,-0.0322,-0.0285,-0.0235,-0.0114,0.0002,0.0121,0.0181,0.0226,0.0354,0.0344,0.0387,0.0392,0.0431,0.0456,0.047,0.0326,0.0327,0.0328,0.0329,0,0,-0.0409,-0.0423,-0.0425,-0.0437,-0.0417,-0.0414,-0.0389,-0.034,-0.0308,-0.0222,-0.0154,0.0014,0.0086,0.0163,0.0265,0.0363,0.0434,0.0387,0.0393,0.038,0.0591,0.0578,0.0591,0.0487,0.049,0.0493,0.0566,0,-0.0453,-0.05,-0.0485,-0.0514,-0.0533,-0.0482,-0.0463,-0.0405,-0.0337,-0.0262,-0.0095,0.0003,0.0079,0.014,0.0253,0.0403,0.0474,0.0407,0.0584,0.0588,0.0548,0.061,0.0631,0.07,0.058,0.0582,0.0584,0,-0.0503,-0.0528,-0.0574,-0.0577,-0.0578,-0.0581,-0.0528,-0.0502,-0.0373,-0.0316,-0.0175,-0.0066,0.0115,0.0157,0.0415,0.0361,0.0456,0.0562,0.0568,0.0597,0.0604,0.0657,0.073,0.0857,0.0606,0.0604,0.0602,0,-0.0554,-0.0585,-0.0624,-0.0628,-0.0624,-0.062,-0.0605,-0.0514,-0.0476,-0.0344,-0.0298,-0.0081,0.0028,0.021,0.0411,0.041,0.0665,0.0695,0.0767,0.0764,0.0842,0.0841,0.1041,0.0849,0.0849,0.0848,0.0848,0,-0.061,-0.0639,-0.0653,-0.0677,-0.0708,-0.0677,-0.0669,-0.0623,-0.0529,-0.0466,-0.0328,-0.0222,0.0046,0.0221,0.0393,0.0618,0.0649,0.0773,0.0805,0.0811,0.0807,0.097,0.1007,0.0851,0.0851,0.085,0.085,0,-0.0664,-0.0674,-0.0722,-0.0735,-0.0739,-0.076,-0.0739,-0.0719,-0.0639,-0.0552,-0.0516,-0.0311,-0.008,0.0156,0.0457,0.0587,0.088,0.0861,0.0809,0.0834,0.1017,0.1048,0.125,0.1322,0.0962,0.0962,0.0963,0,-0.0697,-0.073,-0.0774,-0.0805,-0.0816,-0.0835,-0.0842,-0.078,-0.0746,-0.0586,-0.0541,-0.0327,-0.0134,0.0258,0.0528,0.0801,0.0914,0.0943,0.0971,0.1042,0.1102,0.1117,0.1165,0.1025,0.1026,0.1027,0.1027,0,-0.0756,-0.0771,-0.0809,-0.0879,-0.0908,-0.0931,-0.0928,-0.0918,-0.0816,-0.0718,-0.0541,-0.0377,-0.0021,0.0325,0.0632,0.0803,0.1026,0.0963,0.11,0.122,0.1195,0.1273,0.0901,0.1034,0.1033,0.1032,0.1032,0.1032,-0.0789,-0.0834,-0.0886,-0.0946,-0.0984,-0.1008,-0.1008,-0.0957,-0.0879,-0.0683,-0.0541,-0.0229,0.0171,0.0636,0.08,0.1118,0.1099,0.1239,0.1279,0.1294,0.1358,0.095,0.1083,0.1082,0.1082,0.1082,0.1082,0,-0.0827,-0.0879,-0.0947,-0.1013,-0.1058,-0.1057,-0.1044,-0.0984,-0.0864,-0.0625,-0.0409,0.0112,0.0504,0.0864,0.1276,0.1442,0.1487,0.1528,0.1595,0.1638,0.1351,0.135,0.1473,0.1472,0.1472,0.1472,0.1472,0.1472,-0.085,-0.0925,-0.0964,-0.1052,-0.1092,-0.1102,-0.1082,-0.0942,-0.0753,-0.0342,0.0017,0.0298,0.0756,0.1347,0.1725,0.176,0.1917,0.1881,0.1966,0.1798,0.1776,0.1754,0.1767,0.1974,0.1975,0.2258,0.226,0.2262]}],[{"header":{"parameterUnit":"m.s-1","parameterCategory":2,"la1":30.2991,"la2":30.254,"lo1":-89.0895,"lo2":-89.0444,"dy":0.0017,"dx":0.0017,"nx":28,"ny":28,"refTime":"2025-02-10T09:00:00:Z","depth":"2","parameterNumber":2,"parameterNumberName":"U-component_of_CURRENTS"},"data":[0,0,0,0,0,0,0,0,0,0,0,0,0,0,0,0,0,0,0,0,0,0,0,0,0,0,0,0,0,0,0,0,0,0,0,0,0,0,0,0,0,0,0,0,0,0,0,0,0,0,0,0,0,0,0,0,0,0,-0.2145,-0.2145,0,-0.217,-0.217,-0.217,-0.2162,-0.2162,-0.2161,-0.2161,-0.2143,-0.2143,-0.2143,0,0,0,0,0,0,0,0,0,0,0,0,0,-0.2086,-0.2087,-0.2144,-0.2145,-0.2145,-0.217,-0.217,-0.217,-0.2162,-0.2162,-0.2161,-0.2161,-0.2143,-0.2143,-0.2143,0,0,0,0,0,0,0,0,0,0,0,0,0,-0.211,-0.2087,-0.2144,-0.2146,-0.2146,-0.217,-0.217,-0.217,-0.2162,-0.2162,-0.2161,-0.2161,-0.2143,-0.2143,-0.2143,-0.2152,0,0,-0.2142,-0.2142,0,0,0,0,0,0,0,0,-0.2108,-0.2112,-0.2145,-0.2146,-0.2146,-0.2164,-0.2143,-0.2163,-0.2162,-0.2154,-0.2161,-0.216,-0.2148,-0.2147,-0.2151,-0.2151,-0.2151,-0.2142,-0.2142,-0.2142,-0.2142,0,0,0,0,0,0,0,-0.2107,-0.211,-0.2153,-0.2146,-0.2147,-0.2144,-0.2147,-0.2147,-0.2151,-0.2155,-0.2155,-0.2161,-0.2147,-0.2151,-0.215,-0.215,-0.2142,-0.2142,-0.2142,-0.2142,-0.2189,-0.2191,0,0,0,0,0,0,-0.2108,-0.2109,-0.2152,-0.2154,-0.2128,-0.2146,-0.2149,-0.2157,-0.2152,-0.2152,-0.2161,-0.2161,-0.2152,-0.2151,-0.215,-0.2188,-0.2142,-0.2142,-0.2141,-0.2188,-0.2189,-0.2191,0,0,0,0,0,0,-0.2107,-0.2112,-0.2151,-0.2133,-0.2138,-0.2148,-0.2157,-0.2158,-0.2163,-0.2158,-0.2156,-0.2166,-0.2151,-0.215,-0.2156,-0.2186,-0.2141,-0.2141,-0.2186,-0.2188,-0.219,-0.2246,0,0,0,0,0,0,-0.2105,-0.2112,-0.2116,-0.2133,-0.2139,-0.2171,-0.2158,-0.2159,-0.2169,-0.2168,-0.2161,-0.2159,-0.2151,-0.2157,-0.2156,-0.2185,-0.2141,-0.2184,-0.2187,-0.219,-0.2242,-0.225,-0.2256,0,0,0,0,0,-0.2103,-0.2114,-0.2116,-0.2121,-0.2146,-0.2172,-0.2175,-0.2178,-0.2169,-0.2178,-0.2174,-0.2159,-0.2173,-0.2158,-0.2157,-0.2185,-0.2183,-0.2186,-0.2189,-0.2239,-0.2248,-0.2256,0,0,0,0,0,0,-0.2087,-0.2115,-0.2117,-0.2134,-0.2154,-0.2171,-0.2178,-0.2181,-0.2186,-0.2181,-0.217,-0.2169,-0.2189,-0.2179,-0.2162,-0.2208,-0.2179,-0.2182,-0.2217,-0.2226,-0.2232,-0.2221,-0.2141,0,0,0,0,0,-0.2088,-0.2101,-0.2128,-0.214,-0.2151,-0.2165,-0.2174,-0.218,-0.2189,-0.219,-0.2188,-0.2189,-0.2202,-0.2205,-0.221,-0.223,-0.2195,-0.2251,-0.2257,-0.2263,-0.2254,-0.2233,-0.2236,-0.2201,-0.2201,-0.2201,0,0,-0.2084,-0.21,-0.2107,-0.2137,-0.2149,-0.2175,-0.2168,-0.2188,-0.2207,-0.2187,-0.2205,-0.221,-0.2212,-0.2239,-0.2248,-0.2233,-0.2255,-0.2267,-0.2272,-0.226,-0.2236,-0.2239,-0.2242,-0.2203,-0.2203,-0.2203,0,0,-0.2086,-0.2099,-0.2114,-0.2137,-0.2164,-0.2179,-0.2187,-0.2211,-0.2219,-0.2242,-0.2239,-0.2256,-0.2269,-0.2282,-0.2289,-0.2335,-0.2291,-0.2345,-0.237,-0.235,-0.2352,-0.2353,-0.2309,-0.2305,-0.2349,-0.235,-0.235,0,-0.2079,-0.2102,-0.2122,-0.2147,-0.2165,-0.2184,-0.2207,-0.2227,-0.2249,-0.2256,-0.2253,-0.2284,-0.2291,-0.2324,-0.2349,-0.235,-0.2318,-0.2339,-0.2357,-0.2357,-0.2358,-0.2312,-0.2307,-0.2353,-0.2352,-0.2352,-0.2352,0,-0.2096,-0.2118,-0.213,-0.2168,-0.2192,-0.2215,-0.225,-0.227,-0.2282,-0.2296,-0.2326,-0.2339,-0.2352,-0.2375,-0.2378,-0.24,-0.2369,-0.2366,-0.2331,-0.2364,-0.2314,-0.2308,-0.2357,-0.2356,-0.2355,-0.2354,0,0,-0.2066,-0.2129,-0.2131,-0.2152,-0.2204,-0.2224,-0.2265,-0.2299,-0.2315,-0.2344,-0.236,-0.2406,-0.2404,-0.2412,-0.2424,-0.2422,-0.2409,-0.24,-0.2398,-0.2346,-0.234,-0.226,-0.2246,-0.2406,-0.2405,-0.2405,-0.2301,0,-0.2069,-0.2113,-0.2147,-0.2188,-0.2213,-0.2251,-0.2285,-0.2321,-0.2344,-0.2366,-0.239,-0.2411,-0.2422,-0.2432,-0.2435,-0.2423,-0.2398,-0.2436,-0.2323,-0.2319,-0.2237,-0.2239,-0.2095,-0.1985,-0.2296,-0.2295,-0.2294,0,-0.2067,-0.2098,-0.2138,-0.2196,-0.2209,-0.2238,-0.2283,-0.2319,-0.2361,-0.2377,-0.2402,-0.2413,-0.2438,-0.2432,-0.2404,-0.2426,-0.2379,-0.236,-0.2355,-0.2253,-0.2229,-0.2004,-0.1963,-0.2284,-0.2285,-0.2286,-0.2286,0,-0.2023,-0.2089,-0.2115,-0.2137,-0.2208,-0.2228,-0.2263,-0.2313,-0.2335,-0.2378,-0.2386,-0.2413,-0.241,-0.2388,-0.2358,-0.2376,-0.2298,-0.2314,-0.2187,-0.218,-0.2019,-0.1999,-0.2256,-0.2256,-0.2257,-0.2257,-0.2257,0,-0.2006,-0.2026,-0.2097,-0.2111,-0.2138,-0.2201,-0.2228,-0.2268,-0.2316,-0.2329,-0.238,-0.2378,-0.2396,-0.2363,-0.234,-0.2238,-0.2273,-0.2174,-0.2147,-0.2035,-0.2018,-0.2252,-0.2253,-0.2253,-0.2254,-0.2255,-0.2255,0,-0.1946,-0.1997,-0.2028,-0.2098,-0.2117,-0.2134,-0.22,-0.2218,-0.2273,-0.2289,-0.2301,-0.2334,-0.2289,-0.2279,-0.2225,-0.2185,-0.2122,-0.2064,-0.1922,-0.188,-0.2019,-0.2025,-0.1919,-0.1915,-0.1912,-0.1909,-0.1907,0,-0.1918,-0.1928,-0.1996,-0.2008,-0.2035,-0.2075,-0.2098,-0.2177,-0.2199,-0.2249,-0.2244,-0.2222,-0.2166,-0.2064,-0.1998,-0.1906,-0.1993,-0.1722,-0.1739,-0.2,-0.1984,-0.1995,-0.2004,-0.1544,-0.1539,-0.1535,-0.1532,0,-0.1851,-0.1875,-0.1898,-0.1924,-0.1949,-0.1978,-0.202,-0.2031,-0.2112,-0.2118,-0.2098,-0.2057,-0.1961,-0.18,-0.1694,-0.1638,-0.1741,-0.1634,-0.1923,-0.1664,-0.1642,-0.1629,-0.1651,-0.1495,-0.1499,-0.1502,-0.1504,-0.1505,-0.1784,-0.178,-0.1807,-0.1819,-0.1847,-0.1852,-0.183,-0.188,-0.1878,-0.1853,-0.1902,-0.1778,-0.1738,-0.1489,-0.1403,-0.1345,-0.1465,-0.1416,-0.1431,-0.1449,-0.1437,-0.1412,-0.1218,-0.1219,-0.1221,-0.1223,-0.1224,0,-0.1686,-0.1691,-0.1699,-0.1704,-0.1681,-0.1736,-0.1747,-0.1694,-0.1639,-0.1638,-0.1586,-0.1369,-0.1246,-0.1216,-0.1059,-0.1027,-0.1041,-0.0996,-0.1023,-0.1058,-0.109,-0.1062,-0.0742,-0.074,-0.0739,-0.0738,0,0,-0.1634,-0.1598,-0.1599,-0.1523,-0.1524,-0.1441,-0.1413,-0.1354,-0.1316,-0.1198,-0.1126,-0.1185,-0.1171,-0.096,-0.0908,-0.0798,-0.0924,-0.0758,-0.1143,-0.1208,-0.1239,-0.1324,-0.1319,0,0,0,0,0]},{"header":{"parameterUnit":"m.s-1","parameterCategory":2,"la1":30.2991,"la2":30.254,"lo1":-89.0895,"lo2":-89.0444,"dy":0.0017,"dx":0.0017,"nx":28,"ny":28,"refTime":"2025-02-10T09:00:00:Z","depth":"2","parameterNumber":3,"parameterNumberName":"V-component_of_CURRENTS"},"data":[0,0,0,0,0,0,0,0,0,0,0,0,0,0,0,0,0,0,0,0,0,0,0,0,0,0,0,0,0,0,0,0,0,0,0,0,0,0,0,0,0,0,0,0,0,0,0,0,0,0,0,0,0,0,0,0,0,0,-0.0375,-0.0375,0,-0.0323,-0.0322,-0.0321,-0.028,-0.0279,-0.0279,-0.0279,-0.0168,-0.0166,-0.0163,0,0,0,0,0,0,0,0,0,0,0,0,0,-0.0389,-0.0389,-0.0375,-0.0375,-0.0374,-0.0323,-0.0322,-0.0321,-0.028,-0.0279,-0.0279,-0.0279,-0.0169,-0.0166,-0.0163,0,0,0,0,0,0,0,0,0,0,0,0,0,-0.0363,-0.0389,-0.0375,-0.0349,-0.0346,-0.0323,-0.0322,-0.0321,-0.028,-0.0279,-0.0279,-0.0279,-0.017,-0.0166,-0.0162,-0.0145,0,0,-0.015,-0.0148,0,0,0,0,0,0,0,0,-0.0365,-0.0363,-0.0353,-0.035,-0.0347,-0.0309,-0.0286,-0.026,-0.028,-0.0303,-0.0279,-0.0278,-0.0211,-0.0204,-0.0193,-0.014,-0.0135,-0.0149,-0.0147,-0.0145,-0.0144,0,0,0,0,0,0,0,-0.0367,-0.0364,-0.0353,-0.0353,-0.0349,-0.0322,-0.0318,-0.0281,-0.0258,-0.0301,-0.0298,-0.0295,-0.0209,-0.0197,-0.019,-0.0134,-0.015,-0.0146,-0.0143,-0.0142,-0.0026,-0.0026,0,0,0,0,0,0,-0.038,-0.0366,-0.0354,-0.0351,-0.0357,-0.0322,-0.0318,-0.032,-0.0259,-0.025,-0.0296,-0.0293,-0.0204,-0.0195,-0.0186,-0.0142,-0.0145,-0.0141,-0.0139,-0.0027,-0.0026,-0.0026,0,0,0,0,0,0,-0.038,-0.0379,-0.0357,-0.0358,-0.0354,-0.0323,-0.0325,-0.0319,-0.0307,-0.0256,-0.0246,-0.029,-0.0204,-0.0192,-0.0156,-0.0138,-0.014,-0.0136,-0.0028,-0.0027,-0.0026,-0.0065,0,0,0,0,0,0,-0.0381,-0.038,-0.0385,-0.036,-0.0354,-0.0349,-0.0326,-0.0319,-0.0307,-0.0303,-0.0248,-0.0237,-0.0202,-0.0162,-0.0152,-0.0132,-0.0133,-0.0029,-0.0027,-0.0026,-0.0065,-0.0066,-0.0067,0,0,0,0,0,-0.0382,-0.0395,-0.0386,-0.0384,-0.0363,-0.035,-0.0345,-0.032,-0.0307,-0.0306,-0.0267,-0.0239,-0.0146,-0.0159,-0.0147,-0.0125,-0.0029,-0.0028,-0.0026,-0.0065,-0.0066,-0.0067,0,0,0,0,0,0,-0.0403,-0.0391,-0.0381,-0.0389,-0.0373,-0.0344,-0.0341,-0.0324,-0.0293,-0.0288,-0.0238,-0.0225,-0.0184,-0.0152,-0.0167,-0.0087,-0.008,-0.0076,-0.0113,-0.0113,-0.0114,-0.0125,-0.0129,0,0,0,0,0,-0.0412,-0.0417,-0.0398,-0.0403,-0.0398,-0.0369,-0.036,-0.0345,-0.0316,-0.0303,-0.0263,-0.0215,-0.0168,-0.0141,-0.0101,-0.0063,-0.0021,-0.0038,-0.0039,-0.004,-0.004,0.0049,0.0056,-0.0021,-0.0021,-0.0021,0,0,-0.0421,-0.0415,-0.0418,-0.0408,-0.0392,-0.0393,-0.0363,-0.0355,-0.0349,-0.0294,-0.0272,-0.0222,-0.0161,-0.0117,-0.0094,-0.0088,-0.0,-0.0038,-0.004,-0.0039,0.0051,0.0059,0.0065,-0.002,-0.002,-0.002,0,0,-0.0449,-0.0439,-0.0454,-0.0445,-0.043,-0.0412,-0.0412,-0.0385,-0.0365,-0.0341,-0.0291,-0.0231,-0.0177,-0.0116,-0.0081,-0.0061,-0.0012,-0.0048,-0.0055,0.003,0.0037,0.0044,0.0086,0.0097,-0.0043,-0.0043,-0.0043,0,-0.0461,-0.0478,-0.0455,-0.0466,-0.0464,-0.0425,-0.0438,-0.0413,-0.0376,-0.0352,-0.0342,-0.0222,-0.0172,-0.009,-0.0084,-0.0061,-0.0023,-0.0059,0.0029,0.0037,0.0044,0.0086,0.0099,-0.0045,-0.0045,-0.0045,-0.0045,0,-0.0499,-0.051,-0.0518,-0.052,-0.0512,-0.0516,-0.0484,-0.0467,-0.0437,-0.0401,-0.0325,-0.0244,-0.0171,-0.0136,-0.0107,-0.0019,-0.0015,0.0012,0.0028,0.005,0.0092,0.0106,-0.0048,-0.0047,-0.0046,-0.0046,0,0,-0.0533,-0.0544,-0.0547,-0.0558,-0.0542,-0.0541,-0.0527,-0.0496,-0.0476,-0.0412,-0.0367,-0.0262,-0.0207,-0.0162,-0.0094,-0.0011,0.007,0.0016,0.0021,0.005,0.023,0.0216,0.023,0.0114,0.0117,0.0119,0.0229,0,-0.0569,-0.061,-0.0598,-0.0626,-0.0644,-0.0604,-0.0595,-0.0556,-0.0506,-0.0453,-0.0339,-0.0274,-0.022,-0.0175,-0.0084,0.0039,0.0108,0.0035,0.0211,0.0216,0.0197,0.0247,0.0214,0.0309,0.0243,0.0245,0.0247,0,-0.0611,-0.0634,-0.0675,-0.0684,-0.0686,-0.0691,-0.0658,-0.0642,-0.0552,-0.0509,-0.041,-0.0329,-0.0193,-0.0157,0.0063,0.0013,0.0107,0.02,0.0207,0.0221,0.023,0.0283,0.0337,0.027,0.0269,0.0267,0.0265,0,-0.0656,-0.0685,-0.0721,-0.0726,-0.0728,-0.0729,-0.072,-0.0657,-0.0633,-0.0535,-0.0499,-0.0337,-0.0246,-0.0089,0.0087,0.0081,0.0318,0.0336,0.0409,0.0408,0.0427,0.0423,0.0477,0.0477,0.0477,0.0476,0.0476,0,-0.0705,-0.0732,-0.0747,-0.0769,-0.0801,-0.0778,-0.078,-0.0747,-0.0679,-0.0636,-0.0528,-0.0445,-0.0221,-0.0066,0.0082,0.0288,0.0316,0.0417,0.045,0.0408,0.0402,0.0409,0.04,0.0481,0.048,0.0479,0.0478,0,-0.0752,-0.0761,-0.0806,-0.0823,-0.0829,-0.0851,-0.084,-0.083,-0.0764,-0.0701,-0.0673,-0.0502,-0.0293,-0.0092,0.0176,0.0281,0.0475,0.0528,0.0438,0.0458,0.0502,0.0489,0.0634,0.0635,0.0635,0.0636,0.0636,0,-0.078,-0.0811,-0.0854,-0.0884,-0.0896,-0.0918,-0.0929,-0.0881,-0.0858,-0.0724,-0.069,-0.0494,-0.0333,0.0021,0.0251,0.0496,0.0506,0.0575,0.0568,0.0508,0.0525,0.0511,0.0498,0.0571,0.0571,0.0571,0.0571,0,-0.0833,-0.0847,-0.0884,-0.095,-0.0981,-0.1006,-0.1009,-0.1003,-0.0921,-0.0839,-0.0687,-0.0547,-0.0226,0.0052,0.0331,0.0469,0.0535,0.058,0.0588,0.0522,0.0455,0.0469,0.0458,0.057,0.057,0.057,0.057,0.057,-0.0863,-0.0905,-0.0954,-0.1012,-0.105,-0.1078,-0.1084,-0.1044,-0.0982,-0.0825,-0.069,-0.0436,-0.0216,0.0217,0.0396,0.0561,0.0574,0.0615,0.0614,0.0613,0.0572,0.0508,0.0624,0.0624,0.0624,0.0625,0.0625,0,-0.09,-0.0947,-0.1011,-0.1075,-0.1121,-0.1123,-0.112,-0.1079,-0.0983,-0.0797,-0.061,-0.0322,-0.0028,0.0208,0.0468,0.0604,0.0598,0.0618,0.0584,0.0584,0.0584,0.0539,0.0584,0.0585,0.0585,0.0585,0,0,-0.0922,-0.0991,-0.1027,-0.1113,-0.1154,-0.1176,-0.1165,-0.1068,-0.0927,-0.0724,-0.0512,-0.0257,0.0015,0.0185,0.0348,0.0479,0.0493,0.0486,0.0503,0.0441,0.0439,0.0567,0.0496,0,0,0,0,0]}],[{"header":{"parameterUnit":"m.s-1","parameterCategory":2,"la1":30.2991,"la2":30.254,"lo1":-89.0895,"lo2":-89.0444,"dy":0.0017,"dx":0.0017,"nx":28,"ny":28,"refTime":"2025-02-10T09:00:00:Z","depth":"4","parameterNumber":2,"parameterNumberName":"U-component_of_CURRENTS"},"data":[0,0,0,0,0,0,0,0,0,0,0,0,0,0,0,0,0,0,0,0,0,0,0,0,0,0,0,0,0,0,0,0,0,0,0,0,0,0,0,0,0,0,0,0,0,0,0,0,0,0,0,0,0,0,0,0,0,0,-0.1473,-0.1474,0,-0.1532,-0.1533,-0.1533,-0.1572,-0.1572,-0.1572,-0.1573,-0.1578,-0.1578,-0.1577,0,0,0,0,0,0,0,0,0,0,0,0,0,-0.1396,-0.1397,-0.1473,-0.1474,-0.1475,-0.1532,-0.1533,-0.1534,-0.1572,-0.1572,-0.1572,-0.1573,-0.1578,-0.1578,-0.1577,0,0,0,0,0,0,0,0,0,0,0,0,0,-0.1438,-0.1397,-0.1473,-0.1502,-0.1505,-0.1532,-0.1533,-0.1534,-0.1571,-0.1572,-0.1573,-0.1573,-0.1578,-0.1578,-0.1577,-0.1565,0,0,-0.1576,-0.1576,0,0,0,0,0,0,0,0,-0.1436,-0.1441,-0.1497,-0.15,-0.1504,-0.1546,-0.1508,-0.1542,-0.1571,-0.1545,-0.1573,-0.1573,-0.1563,-0.1564,-0.1572,-0.1565,-0.1565,-0.1576,-0.1576,-0.1576,-0.1576,0,0,0,0,0,0,0,-0.1433,-0.1439,-0.1495,-0.1498,-0.1502,-0.1513,-0.1519,-0.1514,-0.1548,-0.1547,-0.155,-0.1559,-0.1564,-0.1573,-0.1573,-0.1565,-0.1576,-0.1576,-0.1576,-0.1576,-0.1568,-0.1568,0,0,0,0,0,0,-0.1428,-0.1436,-0.1494,-0.1497,-0.1472,-0.1514,-0.1521,-0.1531,-0.1549,-0.1554,-0.1558,-0.1561,-0.1573,-0.1573,-0.1573,-0.1608,-0.1576,-0.1576,-0.1576,-0.1568,-0.1568,-0.1568,0,0,0,0,0,0,-0.1426,-0.1432,-0.1491,-0.1469,-0.1477,-0.1515,-0.1526,-0.1532,-0.1567,-0.1559,-0.1562,-0.159,-0.1573,-0.1573,-0.1596,-0.1607,-0.1576,-0.1575,-0.1568,-0.1568,-0.1568,-0.1647,0,0,0,0,0,0,-0.1423,-0.1431,-0.1449,-0.1469,-0.1478,-0.1526,-0.1525,-0.1533,-0.157,-0.1574,-0.1586,-0.1586,-0.1574,-0.1596,-0.1595,-0.1606,-0.1575,-0.1568,-0.1568,-0.1568,-0.1644,-0.165,-0.1654,0,0,0,0,0,-0.142,-0.1439,-0.1449,-0.1457,-0.1497,-0.1527,-0.1534,-0.156,-0.1571,-0.1592,-0.1603,-0.1587,-0.1594,-0.1597,-0.1596,-0.1606,-0.1568,-0.1568,-0.1568,-0.1642,-0.1649,-0.1654,0,0,0,0,0,0,-0.1415,-0.1445,-0.1457,-0.1485,-0.1513,-0.1534,-0.156,-0.1575,-0.1602,-0.1611,-0.1601,-0.1602,-0.1621,-0.1599,-0.1603,-0.1599,-0.1571,-0.1571,-0.1628,-0.1634,-0.1639,-0.1629,-0.1575,0,0,0,0,0,-0.1421,-0.1445,-0.1472,-0.1497,-0.1514,-0.1541,-0.1562,-0.1581,-0.1601,-0.1615,-0.1626,-0.1622,-0.1614,-0.1617,-0.161,-0.1618,-0.1589,-0.1615,-0.162,-0.1625,-0.1613,-0.159,-0.1592,-0.1567,-0.1567,-0.1567,0,0,-0.1428,-0.1447,-0.1462,-0.1499,-0.1523,-0.1552,-0.1556,-0.1595,-0.1622,-0.1608,-0.1655,-0.1648,-0.162,-0.1631,-0.1635,-0.162,-0.1619,-0.1625,-0.1629,-0.1614,-0.159,-0.1593,-0.1595,-0.1567,-0.1567,-0.1567,0,0,-0.1442,-0.1469,-0.1492,-0.1519,-0.1561,-0.1578,-0.1595,-0.1635,-0.1658,-0.1696,-0.1684,-0.1685,-0.1694,-0.1669,-0.1655,-0.1677,-0.1649,-0.1676,-0.1695,-0.1674,-0.1676,-0.1678,-0.1661,-0.1661,-0.1676,-0.1676,-0.1676,0,-0.145,-0.1479,-0.1505,-0.1534,-0.1559,-0.1592,-0.1622,-0.165,-0.1694,-0.1703,-0.1721,-0.171,-0.1703,-0.1679,-0.1694,-0.1688,-0.1677,-0.1683,-0.1682,-0.1683,-0.1683,-0.1666,-0.1664,-0.168,-0.1679,-0.1679,-0.1678,0,-0.1472,-0.1508,-0.1526,-0.1571,-0.1602,-0.1636,-0.1673,-0.1709,-0.1742,-0.1756,-0.1767,-0.1757,-0.1742,-0.1741,-0.1733,-0.1719,-0.1713,-0.1698,-0.1674,-0.1691,-0.1671,-0.1668,-0.1685,-0.1684,-0.1683,-0.1682,0,0,-0.1453,-0.1527,-0.1536,-0.1564,-0.1625,-0.1649,-0.1697,-0.1731,-0.1751,-0.1787,-0.1798,-0.179,-0.1783,-0.1764,-0.1746,-0.1731,-0.1741,-0.1727,-0.1725,-0.1723,-0.1707,-0.1598,-0.1584,-0.174,-0.1739,-0.1739,-0.17,0,-0.1463,-0.1518,-0.1554,-0.1611,-0.164,-0.1686,-0.1722,-0.1758,-0.1789,-0.1813,-0.1794,-0.1801,-0.1791,-0.1791,-0.1776,-0.1742,-0.1733,-0.1753,-0.1679,-0.1677,-0.1587,-0.1576,-0.1737,-0.1697,-0.1697,-0.1696,-0.1696,0,-0.1464,-0.1502,-0.1558,-0.1624,-0.1641,-0.1683,-0.1734,-0.1772,-0.1803,-0.1823,-0.1821,-0.1819,-0.1794,-0.1796,-0.1739,-0.1759,-0.1743,-0.1719,-0.1717,-0.1577,-0.156,-0.1669,-0.1689,-0.169,-0.169,-0.1691,-0.1691,0,-0.142,-0.15,-0.1544,-0.1571,-0.1651,-0.1684,-0.1728,-0.1773,-0.1796,-0.183,-0.1842,-0.1818,-0.1808,-0.1775,-0.1735,-0.1748,-0.1675,-0.1679,-0.1562,-0.1555,-0.1635,-0.1633,-0.1648,-0.1648,-0.1648,-0.1648,-0.1648,0,-0.1396,-0.1434,-0.1534,-0.1556,-0.1603,-0.1671,-0.1713,-0.1753,-0.1797,-0.18,-0.1842,-0.1819,-0.1808,-0.1769,-0.1735,-0.1621,-0.167,-0.1549,-0.1527,-0.1671,-0.1673,-0.1633,-0.1632,-0.1647,-0.1647,-0.1647,-0.1647,0,-0.1333,-0.1403,-0.1457,-0.1553,-0.1585,-0.1619,-0.1705,-0.1722,-0.1783,-0.179,-0.1802,-0.182,-0.1758,-0.173,-0.1668,-0.16,-0.1518,-0.1478,-0.1633,-0.1624,-0.142,-0.1424,-0.133,-0.1325,-0.1322,-0.1319,-0.1316,0,-0.1301,-0.1326,-0.1438,-0.1468,-0.1517,-0.1582,-0.1614,-0.1698,-0.1711,-0.1759,-0.174,-0.1729,-0.1717,-0.1527,-0.1526,-0.1433,-0.1421,-0.1383,-0.1396,-0.1394,-0.1383,-0.1392,-0.1401,-0.131,-0.1309,-0.1308,-0.1307,0,-0.1232,-0.1288,-0.133,-0.1392,-0.1443,-0.1484,-0.1541,-0.1539,-0.1612,-0.1688,-0.1618,-0.1569,-0.1502,-0.1433,-0.1375,-0.1316,-0.14,-0.1344,-0.1352,-0.1364,-0.1369,-0.1364,-0.1376,-0.1294,-0.1296,-0.1297,-0.1298,0,-0.1178,-0.119,-0.1253,-0.129,-0.1351,-0.1356,-0.1405,-0.1409,-0.1431,-0.1496,-0.1464,-0.145,-0.1479,-0.1371,-0.1311,-0.1242,-0.1223,-0.1182,-0.1198,-0.1213,-0.1189,-0.118,-0.1009,0,0,0,0,0,-0.1114,-0.111,-0.1141,-0.1174,-0.1229,-0.1257,-0.1334,-0.1384,-0.1461,-0.137,-0.1412,-0.1342,-0.1249,-0.1248,-0.1145,-0.1256,-0.1231,-0.1133,-0.1196,-0.1222,-0.1237,-0.1218,0,0,0,0,0,0,-0.1068,-0.1095,-0.1099,-0.1062,-0.1059,-0.1098,-0.114,-0.1199,-0.116,-0.1242,-0.1193,-0.1254,-0.118,-0.127,-0.1111,-0.111,-0.112,-0.1139,-0.1135,-0.1213,-0.1227,-0.1239,-0.1225,0,0,0,0,0]},{"header":{"parameterUnit":"m.s-1","parameterCategory":2,"la1":30.2991,"la2":30.254,"lo1":-89.0895,"lo2":-89.0444,"dy":0.0017,"dx":0.0017,"nx":28,"ny":28,"refTime":"2025-02-10T09:00:00:Z","depth":"4","parameterNumber":3,"parameterNumberName":"V-component_of_CURRENTS"},"data":[0,0,0,0,0,0,0,0,0,0,0,0,0,0,0,0,0,0,0,0,0,0,0,0,0,0,0,0,0,0,0,0,0,0,0,0,0,0,0,0,0,0,0,0,0,0,0,0,0,0,0,0,0,0,0,0,0,0,-0.0339,-0.0339,0,-0.031,-0.031,-0.0309,-0.0291,-0.0291,-0.0291,-0.0291,-0.0252,-0.0251,-0.025,0,0,0,0,0,0,0,0,0,0,0,0,0,-0.0339,-0.034,-0.0339,-0.0339,-0.0338,-0.031,-0.031,-0.0309,-0.0291,-0.0291,-0.0291,-0.0291,-0.0252,-0.0251,-0.0249,0,0,0,0,0,0,0,0,0,0,0,0,0,-0.0327,-0.034,-0.0339,-0.0327,-0.0325,-0.031,-0.031,-0.0309,-0.0291,-0.0291,-0.0291,-0.0291,-0.0252,-0.0251,-0.0249,-0.024,0,0,-0.0244,-0.0244,0,0,0,0,0,0,0,0,-0.0327,-0.0327,-0.0329,-0.0328,-0.0326,-0.0305,-0.0295,-0.0286,-0.0291,-0.0303,-0.0291,-0.0291,-0.0269,-0.0266,-0.0259,-0.0238,-0.0236,-0.0244,-0.0243,-0.0243,-0.0242,0,0,0,0,0,0,0,-0.0328,-0.0327,-0.0326,-0.0329,-0.0327,-0.0309,-0.0308,-0.0293,-0.0285,-0.0302,-0.0301,-0.0299,-0.0268,-0.0261,-0.0258,-0.0235,-0.0244,-0.0243,-0.0242,-0.0241,-0.0244,-0.0245,0,0,0,0,0,0,-0.0337,-0.0329,-0.0327,-0.0326,-0.0328,-0.031,-0.0308,-0.0311,-0.0286,-0.0282,-0.0299,-0.0298,-0.0264,-0.026,-0.0257,-0.026,-0.0243,-0.0241,-0.024,-0.0243,-0.0244,-0.0245,0,0,0,0,0,0,-0.0337,-0.0337,-0.0328,-0.0327,-0.0325,-0.031,-0.0313,-0.031,-0.0307,-0.0284,-0.028,-0.03,-0.0263,-0.0259,-0.0248,-0.0258,-0.0241,-0.0239,-0.0242,-0.0243,-0.0244,-0.0256,0,0,0,0,0,0,-0.0337,-0.0337,-0.0344,-0.0328,-0.0325,-0.0326,-0.0313,-0.031,-0.0307,-0.0306,-0.0284,-0.028,-0.0263,-0.0251,-0.0247,-0.0255,-0.0238,-0.024,-0.0242,-0.0244,-0.0254,-0.0257,-0.026,0,0,0,0,0,-0.0337,-0.0348,-0.0345,-0.0345,-0.0335,-0.0327,-0.0324,-0.0312,-0.0307,-0.0309,-0.0293,-0.0281,-0.0261,-0.025,-0.0245,-0.0253,-0.0239,-0.0242,-0.0244,-0.0253,-0.0257,-0.026,0,0,0,0,0,0,-0.0351,-0.0347,-0.0343,-0.0352,-0.0343,-0.0324,-0.0326,-0.0317,-0.0305,-0.0305,-0.0282,-0.0277,-0.0273,-0.0266,-0.0255,-0.0264,-0.0253,-0.0254,-0.0261,-0.0265,-0.0268,-0.0274,-0.0237,0,0,0,0,0,-0.0358,-0.0366,-0.0355,-0.0362,-0.036,-0.0344,-0.034,-0.0332,-0.0319,-0.0314,-0.0297,-0.0287,-0.0279,-0.0273,-0.0265,-0.0261,-0.0237,-0.027,-0.0273,-0.0276,-0.028,-0.0255,-0.0256,-0.0252,-0.0252,-0.0252,0,0,-0.0366,-0.0365,-0.0369,-0.0366,-0.0358,-0.0362,-0.0342,-0.034,-0.0343,-0.0311,-0.0309,-0.0293,-0.0281,-0.0279,-0.0278,-0.0272,-0.0261,-0.0278,-0.028,-0.0283,-0.0258,-0.0258,-0.0258,-0.0254,-0.0254,-0.0253,0,0,-0.0386,-0.0384,-0.0397,-0.0394,-0.0388,-0.0378,-0.038,-0.0365,-0.0358,-0.0352,-0.0334,-0.0325,-0.031,-0.0302,-0.0296,-0.0314,-0.0277,-0.0317,-0.0333,-0.0309,-0.0308,-0.0308,-0.0256,-0.0251,-0.0318,-0.0318,-0.0318,0,-0.0397,-0.0411,-0.0399,-0.0409,-0.0411,-0.0389,-0.0402,-0.0391,-0.0373,-0.0367,-0.0358,-0.0335,-0.0324,-0.0318,-0.0326,-0.032,-0.0288,-0.0314,-0.031,-0.0309,-0.0308,-0.0256,-0.025,-0.0319,-0.0319,-0.0319,-0.0319,0,-0.0422,-0.0436,-0.0443,-0.045,-0.0449,-0.0456,-0.0442,-0.0437,-0.0425,-0.0409,-0.0397,-0.0373,-0.036,-0.0358,-0.0345,-0.0339,-0.031,-0.0313,-0.0295,-0.0309,-0.0253,-0.0247,-0.032,-0.032,-0.032,-0.032,0,0,-0.0443,-0.0459,-0.0463,-0.0477,-0.0473,-0.0477,-0.048,-0.0472,-0.047,-0.0447,-0.0437,-0.0425,-0.04,-0.0395,-0.0373,-0.0354,-0.0314,-0.0331,-0.033,-0.0269,-0.0232,-0.0214,-0.0204,-0.0308,-0.0308,-0.0308,-0.0187,0,-0.0468,-0.0502,-0.05,-0.053,-0.0546,-0.0529,-0.0533,-0.0522,-0.0501,-0.048,-0.0449,-0.0434,-0.0417,-0.0406,-0.0383,-0.0333,-0.0301,-0.0345,-0.0238,-0.0235,-0.0207,-0.0198,-0.0306,-0.0182,-0.0181,-0.018,-0.0179,0,-0.0494,-0.0515,-0.0554,-0.0575,-0.0579,-0.0593,-0.0591,-0.059,-0.0553,-0.0533,-0.0501,-0.0464,-0.0428,-0.0416,-0.0329,-0.0353,-0.0297,-0.0256,-0.025,-0.0228,-0.0205,-0.0172,-0.0167,-0.0168,-0.0168,-0.0169,-0.017,0,-0.052,-0.0552,-0.0588,-0.0596,-0.0613,-0.0627,-0.0631,-0.0609,-0.0604,-0.0562,-0.054,-0.0486,-0.0448,-0.0387,-0.0291,-0.0309,-0.0178,-0.0195,-0.012,-0.0116,-0.0162,-0.0164,-0.0136,-0.0136,-0.0136,-0.0136,-0.0137,0,-0.0546,-0.0575,-0.0607,-0.0628,-0.0668,-0.0663,-0.0685,-0.0674,-0.0646,-0.063,-0.057,-0.0529,-0.0439,-0.0348,-0.028,-0.0163,-0.0165,-0.0115,-0.0089,-0.0168,-0.0172,-0.0155,-0.0159,-0.0132,-0.0133,-0.0134,-0.0134,0,-0.0567,-0.0588,-0.0635,-0.0669,-0.0685,-0.0713,-0.0732,-0.0736,-0.0701,-0.0673,-0.0659,-0.055,-0.0428,-0.0316,-0.0189,-0.0141,-0.0044,-0.0001,-0.0059,-0.0039,0.0001,-0.0005,0.0081,0.0082,0.0083,0.0085,0.0085,0,-0.0579,-0.0607,-0.0671,-0.0706,-0.0728,-0.0766,-0.0788,-0.0772,-0.0763,-0.0681,-0.0659,-0.0528,-0.0446,-0.0224,-0.0131,0.0025,0.0033,0.0085,0.0004,0.0005,0.0021,0.0013,0.0005,0.0088,0.0088,0.0088,0.0089,0,-0.0601,-0.063,-0.0669,-0.0743,-0.0786,-0.0823,-0.0843,-0.0837,-0.0796,-0.0766,-0.0634,-0.0513,-0.0355,-0.0206,-0.0064,0.0031,0.0043,0.0099,0.0095,0.0019,0.0014,0.0028,0.0019,0.0093,0.0092,0.0092,0.0092,0,-0.0615,-0.0651,-0.0709,-0.0767,-0.0827,-0.0856,-0.0866,-0.083,-0.0807,-0.0705,-0.0658,-0.0486,-0.0382,-0.02,-0.0081,0.003,0.0027,0.0026,0.0026,0.0022,-0.0046,-0.0063,0.0021,0,0,0,0,0,-0.0622,-0.0665,-0.0727,-0.079,-0.0847,-0.0875,-0.0889,-0.0882,-0.0838,-0.0745,-0.0696,-0.0544,-0.0333,-0.0234,-0.0119,-0.0096,0.002,0.0036,0.0012,0.0118,0.0113,0.0043,0,0,0,0,0,0,-0.063,-0.0691,-0.0724,-0.0791,-0.0834,-0.0885,-0.0894,-0.0866,-0.08,-0.0736,-0.0611,-0.0537,-0.0325,-0.039,-0.0119,-0.0085,-0.0093,0.0141,0.0143,0.0121,0.0116,0.0112,0.0038,0,0,0,0,0]}]]